Accueil
METAR-TAF:

METAR-TAF

Aéroports :

Alpnach, Suisse

latitude: 46-56-19N, longitude: 8-17-03E, altitude: 440 m

Observation

Le bulletin a été fait il y a 59 minutes, à 09:50 UTC
Vent 8 kt de nord-est, variant entre nord et est
Température 20°C
Humidité 64%
Pression 1002 hPa
Visibilité 10 km ou plus
Quelques nuages à une hauteur de 4500 ft
Nuages épars à une hauteur de 11000 ft

METAR: LSMA 290950Z 05008KT 010V080 9999 FEW045 SCT110 20/13 Q1002 RMK BLU+

Heure: 12:49 (10:49 UTC)


TAF: absent

Observations et prévisions météorologiques de plus de 4000 aéroports (messages METAR et TAF).

Les stations disponibles sont représentées par des disques jaunes et rouges sur la carte.

Passer la souris dessus pour voir le nom de la station.

Cliquer dessus pour voir les observations et prévisions météorologiques.

Pour changer de carte: cliquez sur les boutons verts avec une croix noire pour zoomer, sur le bouton vert avec un tiret pour effectuer un zoom arrière, ou sur les flèches vertes pour les cartes adjacentes.


METAR-TAF: